User: anonymous   Login
Location: Newark
(52.8300°N, 8.0000°E)
Time: 21:43:58
(UTC+00:00)
Language:

STARLINK-1123 - Orbit

View from above orbital plane
View from above orbital plane
View from above satellite
View from above satellite

Ground track
Ground track

The orbit data is extracted from the following two-line orbital elements,

1 44930U 20001S   20088.58336806  .00009086  00000-0  64209-3 0  9997
2 44930  53.0022  17.5702 0001937  61.2074  77.4722 15.05573680 12480
Epoch (UTC): 28 March 2020 14:00:03
Eccentricity: 0.0001937
inclination: 53.0022°
perigee height: 548 km
apogee height: 551 km
right ascension of ascending node: 17.5702°
argument of perigee: 61.2074°
revolutions per day: 15.05573680
mean anomaly at epoch: 77.4722°
orbit number at epoch: 1248

The dashed part of the orbit path shows where the satellite is in the earth's shadow,  

DLR